[[{"header":{"parameterUnit":"m.s-1","parameterCategory":1,"la1":30.2991,"la2":30.254,"lo1":-89.0895,"lo2":-89.0444,"dy":0.0017,"dx":0.0017,"nx":28,"ny":28,"refTime":"2025-08-27T09:00:00:Z","depth":0,"parameterNumber":2,"parameterNumberName":"U-component_of_WINDS"},"data":[0,0,0,0,0,0,0,0,0,0,0,0,0,0,0,0,0,0,0,0,0,0,0,0,0,0,0,0,0,0,0,0,0,0,0,0,0,0,0,0,0,0,0,0,0,0,0,0,0,0,0,0,0,0,0,0,0,0,0.4101,0.4101,0,0.4073,0.4073,0.4073,0.4043,0.4043,0.4042,0.4042,0.4013,0.4013,0.4013,0,0,0,0,0,0,0,0,0,0,0,0,0,0.4128,0.4128,0.4101,0.4101,0.4101,0.4073,0.4073,0.4073,0.4043,0.4043,0.4042,0.4042,0.4013,0.4013,0.4013,0,0,0,0,0,0,0,0,0,0,0,0,0,0.411,0.4128,0.4102,0.4083,0.4081,0.4073,0.4073,0.4073,0.4043,0.4043,0.4042,0.4041,0.4014,0.4013,0.4012,0.4022,0,0,0.4011,0.4011,0,0,0,0,0,0,0,0,0.4111,0.4109,0.4086,0.4084,0.4082,0.4061,0.4072,0.4055,0.4043,0.4057,0.4042,0.4041,0.403,0.4028,0.4024,0.402,0.4019,0.4011,0.401,0.401,0.401,0,0,0,0,0,0,0,0.4113,0.411,0.409,0.4085,0.4083,0.4075,0.4072,0.4069,0.4047,0.4056,0.4054,0.4051,0.4028,0.4025,0.4023,0.4019,0.4011,0.401,0.401,0.401,0.4019,0.4019,0,0,0,0,0,0,0.4117,0.4112,0.4091,0.4089,0.4095,0.4075,0.4072,0.4068,0.4047,0.4044,0.4052,0.405,0.4026,0.4024,0.4022,0.403,0.401,0.401,0.4009,0.4018,0.4019,0.402,0,0,0,0,0,0,0.4117,0.4115,0.4092,0.41,0.4096,0.4076,0.4072,0.4068,0.4064,0.4044,0.404,0.4051,0.4025,0.4023,0.4021,0.4028,0.4009,0.4009,0.4018,0.4019,0.4019,0.4046,0,0,0,0,0,0,0.4118,0.4116,0.4119,0.41,0.4096,0.4093,0.4072,0.4068,0.4063,0.406,0.4043,0.4039,0.4025,0.4022,0.4021,0.4027,0.4009,0.4017,0.4018,0.4019,0.4045,0.4048,0.4051,0,0,0,0,0,0.4119,0.4128,0.412,0.4117,0.41,0.4093,0.4091,0.4074,0.4064,0.4067,0.4054,0.404,0.4028,0.4023,0.4021,0.4027,0.4016,0.4018,0.4019,0.4043,0.4047,0.4051,0,0,0,0,0,0,0.4149,0.4126,0.4116,0.4119,0.4108,0.4088,0.4092,0.4079,0.4071,0.4069,0.4048,0.4044,0.4045,0.4036,0.403,0.4033,0.402,0.4021,0.4039,0.4043,0.4046,0.4048,0.4008,0,0,0,0,0,0.4156,0.4153,0.4132,0.4137,0.4132,0.4113,0.4109,0.4097,0.4085,0.408,0.4067,0.4056,0.405,0.4046,0.4039,0.4043,0.4038,0.4047,0.405,0.4052,0.4053,0.4053,0.4056,0.4024,0.4024,0.4024,0,0,0.4171,0.4157,0.4157,0.4143,0.4133,0.4129,0.4109,0.4107,0.4103,0.408,0.4077,0.4067,0.4054,0.4055,0.4054,0.4047,0.4061,0.4054,0.4056,0.4055,0.4054,0.4057,0.406,0.4025,0.4025,0.4024,0,0,0.4195,0.4185,0.4187,0.4177,0.4162,0.4149,0.415,0.4131,0.4124,0.4121,0.4102,0.4098,0.4088,0.4078,0.4072,0.4091,0.4077,0.4089,0.4105,0.4105,0.4107,0.4109,0.4115,0.4117,0.409,0.409,0.409,0,0.4214,0.4208,0.419,0.4187,0.4181,0.4159,0.416,0.4152,0.4136,0.4132,0.4124,0.411,0.4099,0.4097,0.4101,0.4097,0.4096,0.4091,0.4109,0.4111,0.4112,0.4117,0.4119,0.4092,0.4092,0.4092,0.4091,0,0.4232,0.4228,0.4231,0.4216,0.421,0.421,0.419,0.4187,0.4174,0.4162,0.4158,0.4145,0.4134,0.4132,0.4121,0.4128,0.4123,0.4113,0.4098,0.4117,0.4121,0.4123,0.4094,0.4093,0.4093,0.4093,0,0,0.4275,0.4248,0.4249,0.4241,0.4222,0.4218,0.4217,0.4205,0.4202,0.4192,0.4189,0.418,0.4169,0.4162,0.4149,0.4149,0.4163,0.4138,0.4137,0.4142,0.4168,0.4175,0.4178,0.4154,0.4154,0.4154,0.4168,0,0.4294,0.4289,0.4272,0.4272,0.4267,0.4246,0.4244,0.4232,0.422,0.4214,0.42,0.4194,0.4181,0.4176,0.4175,0.4161,0.4167,0.416,0.415,0.415,0.4153,0.418,0.4188,0.4202,0.417,0.417,0.417,0,0.4317,0.4307,0.4306,0.4286,0.4283,0.4282,0.427,0.4264,0.425,0.4241,0.4232,0.4217,0.4213,0.4201,0.4194,0.4189,0.4184,0.4177,0.4177,0.4174,0.4161,0.4177,0.4207,0.4208,0.4173,0.4173,0.4172,0,0.4346,0.4332,0.433,0.4323,0.4301,0.43,0.429,0.4275,0.4269,0.4258,0.4254,0.4243,0.4237,0.4228,0.421,0.4203,0.4205,0.4192,0.4197,0.4197,0.4198,0.4198,0.4225,0.4196,0.4196,0.4196,0.4196,0,0.4369,0.4369,0.4342,0.434,0.4339,0.4319,0.4319,0.4307,0.4294,0.4289,0.427,0.4266,0.4243,0.4236,0.4222,0.4218,0.4216,0.4208,0.4204,0.4209,0.4209,0.4204,0.4202,0.4197,0.4197,0.4196,0.4196,0,0.4401,0.4383,0.4378,0.4357,0.4351,0.4351,0.4333,0.433,0.4316,0.431,0.4308,0.4287,0.4277,0.4259,0.4244,0.4235,0.4233,0.4227,0.4238,0.4235,0.4241,0.424,0.4266,0.4267,0.4238,0.4239,0.4239,0,0.4416,0.4416,0.4394,0.4389,0.438,0.4373,0.4366,0.4346,0.4339,0.4322,0.4321,0.431,0.43,0.4286,0.4269,0.4257,0.425,0.426,0.4248,0.4253,0.4249,0.4248,0.4248,0.4262,0.4263,0.4263,0.4263,0,0.4445,0.4436,0.4427,0.4415,0.4407,0.4396,0.4385,0.4382,0.4359,0.4353,0.4342,0.4335,0.4319,0.4308,0.4294,0.4283,0.4269,0.4267,0.4267,0.4272,0.4278,0.4273,0.4244,0.4266,0.4266,0.4266,0.4266,0.4266,0.4468,0.4466,0.445,0.444,0.4429,0.4418,0.4414,0.4399,0.4391,0.4376,0.4365,0.4355,0.4339,0.4319,0.4309,0.4301,0.4294,0.4295,0.4295,0.4295,0.4297,0.428,0.4298,0.4298,0.4298,0.4298,0.4298,0,0.4494,0.4483,0.4474,0.4458,0.445,0.4437,0.4423,0.4417,0.4409,0.4396,0.4386,0.4373,0.4362,0.4344,0.4331,0.4328,0.4321,0.4325,0.4324,0.4322,0.4304,0.4305,0.4331,0.4331,0.4331,0.4331,0.4331,0.4331,0.4507,0.4502,0.4491,0.448,0.4468,0.4458,0.4451,0.4441,0.443,0.4417,0.4407,0.4395,0.4379,0.4365,0.4354,0.4348,0.4344,0.435,0.4343,0.4326,0.4323,0.432,0.4321,0.435,0.435,0.4361,0.4361,0.4361]},{"header":{"parameterUnit":"m.s-1","parameterCategory":1,"la1":30.2991,"la2":30.254,"lo1":-89.0895,"lo2":-89.0444,"dy":0.0017,"dx":0.0017,"nx":28,"ny":28,"refTime":"2025-08-27T09:00:00:Z","depth":0,"parameterNumber":3,"parameterNumberName":"V-component_of_WINDS"},"data":[0,0,0,0,0,0,0,0,0,0,0,0,0,0,0,0,0,0,0,0,0,0,0,0,0,0,0,0,0,0,0,0,0,0,0,0,0,0,0,0,0,0,0,0,0,0,0,0,0,0,0,0,0,0,0,0,0,0,4.728,4.7279,0,4.7247,4.7247,4.7247,4.7157,4.7155,4.7153,4.7151,4.7119,4.712,4.7121,0,0,0,0,0,0,0,0,0,0,0,0,0,4.7264,4.7265,4.728,4.7279,4.7279,4.7248,4.7247,4.7247,4.7157,4.7155,4.7153,4.715,4.7119,4.712,4.7121,0,0,0,0,0,0,0,0,0,0,0,0,0,4.7256,4.7265,4.728,4.7231,4.7226,4.7248,4.7247,4.7247,4.7158,4.7155,4.7152,4.7149,4.7118,4.712,4.7121,4.7188,0,0,4.7126,4.7126,0,0,0,0,0,0,0,0,4.7256,4.7256,4.7238,4.7234,4.7229,4.7203,4.723,4.7227,4.7159,4.7184,4.7151,4.7148,4.7149,4.7148,4.7149,4.7187,4.7185,4.7126,4.7127,4.7127,4.7128,0,0,0,0,0,0,0,4.7257,4.7257,4.7267,4.7238,4.7232,4.721,4.7206,4.7229,4.7183,4.7181,4.7175,4.7172,4.7146,4.7147,4.7147,4.7185,4.7126,4.7127,4.7128,4.7128,4.7274,4.7277,0,0,0,0,0,0,4.7264,4.7258,4.7268,4.7266,4.7236,4.7213,4.7208,4.7214,4.7183,4.7175,4.7175,4.7168,4.7146,4.7146,4.7146,4.722,4.7127,4.7129,4.7129,4.7271,4.7275,4.7278,0,0,0,0,0,0,4.7265,4.7266,4.7269,4.726,4.7259,4.7216,4.7224,4.7215,4.7216,4.7178,4.7169,4.7184,4.7144,4.7144,4.7178,4.7217,4.7129,4.713,4.7268,4.7272,4.7277,4.737,0,0,0,0,0,0,4.7264,4.7267,4.7292,4.7262,4.726,4.7302,4.7227,4.7217,4.7219,4.721,4.7184,4.7177,4.7142,4.7176,4.7179,4.7218,4.7132,4.7264,4.727,4.7275,4.7363,4.7377,4.7389,0,0,0,0,0,4.7264,4.732,4.7294,4.7295,4.729,4.7305,4.7304,4.7261,4.7222,4.7247,4.7222,4.7178,4.7213,4.718,4.7183,4.7223,4.7261,4.7268,4.7275,4.7358,4.7375,4.7389,0,0,0,0,0,0,4.7357,4.7315,4.7285,4.7333,4.7323,4.7289,4.7319,4.7281,4.7282,4.7274,4.7222,4.7217,4.7258,4.7244,4.7208,4.7285,4.723,4.7238,4.7292,4.7308,4.7321,4.7322,4.7133,0,0,0,0,0,4.7383,4.7398,4.7361,4.7407,4.7403,4.7363,4.7367,4.7335,4.7323,4.7318,4.7296,4.7286,4.7294,4.7301,4.7307,4.7362,4.7354,4.7391,4.7404,4.7415,4.7421,4.7447,4.7462,4.7301,4.7301,4.73,0,0,4.7436,4.7416,4.7428,4.7425,4.7413,4.7429,4.7359,4.738,4.7391,4.7321,4.7351,4.7335,4.732,4.7364,4.7383,4.7354,4.7464,4.7423,4.7432,4.7432,4.7455,4.7471,4.7484,4.7305,4.7304,4.7304,0,0,4.7542,4.7529,4.7564,4.7554,4.7537,4.7509,4.7518,4.749,4.7476,4.7506,4.7453,4.7466,4.7483,4.7473,4.7471,4.7572,4.7531,4.7576,4.7643,4.7669,4.7682,4.7693,4.7726,4.7739,4.7583,4.7584,4.7584,0,4.761,4.7632,4.7587,4.761,4.7609,4.7547,4.7582,4.7575,4.7561,4.7562,4.753,4.7548,4.7534,4.7574,4.7599,4.76,4.7607,4.7577,4.7684,4.7694,4.7704,4.7735,4.7748,4.7589,4.7588,4.7588,4.7587,0,4.7716,4.7733,4.7764,4.775,4.7754,4.7783,4.7742,4.775,4.7719,4.7695,4.7725,4.7706,4.7705,4.7713,4.7683,4.7749,4.7731,4.7693,4.7636,4.7725,4.7754,4.7766,4.7596,4.7595,4.7593,4.7592,0,0,4.7877,4.7839,4.7851,4.7843,4.782,4.7831,4.7858,4.7857,4.7865,4.7858,4.7877,4.7893,4.7856,4.7854,4.7822,4.7845,4.7924,4.7803,4.7802,4.7824,4.7992,4.8019,4.8034,4.7898,4.79,4.7902,4.7992,0,4.7974,4.8016,4.7976,4.8025,4.8039,4.798,4.8002,4.7991,4.7969,4.7977,4.7954,4.7964,4.7917,4.7914,4.7935,4.791,4.7956,4.7903,4.7914,4.7915,4.7916,4.8049,4.8078,4.8165,4.8004,4.8006,4.8007,0,4.8093,4.809,4.814,4.8112,4.8116,4.8138,4.8133,4.8142,4.8127,4.811,4.8107,4.8068,4.8092,4.8038,4.8069,4.8033,4.8036,4.8024,4.8027,4.8024,4.7964,4.8047,4.8192,4.8204,4.8025,4.8023,4.8022,0,4.8201,4.8211,4.8241,4.8237,4.8206,4.8222,4.821,4.8192,4.8194,4.8191,4.8191,4.8191,4.819,4.8191,4.8153,4.8118,4.8188,4.8132,4.8172,4.8173,4.8187,4.8186,4.8331,4.8194,4.8194,4.8194,4.8193,0,4.8312,4.8344,4.8289,4.8308,4.8342,4.8297,4.8332,4.8314,4.8299,4.8312,4.8263,4.8277,4.8228,4.8237,4.8208,4.8236,4.8237,4.8222,4.8214,4.8225,4.8227,4.8224,4.8216,4.8197,4.8196,4.8196,4.8195,0,4.8438,4.8403,4.8431,4.84,4.8393,4.8419,4.8392,4.8408,4.8383,4.8401,4.8403,4.8364,4.8372,4.8335,4.8337,4.8317,4.8359,4.8342,4.8363,4.8357,4.8398,4.8394,4.8544,4.8561,4.8416,4.8417,4.8419,0,4.8509,4.8532,4.8503,4.8508,4.8499,4.8508,4.8509,4.8466,4.8469,4.8454,4.8471,4.8475,4.8474,4.849,4.8461,4.8462,4.8443,4.8495,4.8442,4.8452,4.844,4.8438,4.8439,4.8505,4.8507,4.8509,4.851,0,4.8639,4.862,4.8623,4.8621,4.8623,4.8619,4.8612,4.8619,4.8572,4.8578,4.8584,4.8585,4.8586,4.8589,4.8584,4.8571,4.8532,4.8527,4.8536,4.8546,4.8557,4.8549,4.839,4.8523,4.8522,4.8521,4.852,4.852,4.8737,4.8755,4.8736,4.8741,4.8731,4.8725,4.8737,4.8714,4.8719,4.8716,4.869,4.8701,4.8685,4.8674,4.8665,4.8673,4.8648,4.8662,4.8664,4.8668,4.8674,4.8558,4.8672,4.8672,4.8672,4.8671,4.8671,0,4.8862,4.8847,4.8852,4.8843,4.8847,4.881,4.88,4.8806,4.8816,4.8804,4.8805,4.8812,4.8815,4.8788,4.8787,4.8799,4.8781,4.88,4.8797,4.8794,4.8698,4.8689,4.8814,4.8814,4.8814,4.8814,4.8814,4.8814,4.8927,4.8953,4.8932,4.8953,4.8938,4.8948,4.8945,4.8939,4.8929,4.8939,4.8941,4.8923,4.8904,4.8902,4.8903,4.8894,4.8895,4.892,4.8905,4.8815,4.8801,4.8788,4.8779,4.8921,4.8921,4.9,4.9001,4.9002]}]]